�������l�o���
Date,Time,MP-1(��Sv/h),MP-2(��Sv/h),MP-3(��Sv/h),MP-4(��Sv/h),MP-5(��Sv/h),MP-6(��Sv/h),MP-7(��Sv/h),MP-8(��Sv/h),����,����(m/s),���J
2019/10/30,00:00,0.695,0.971,0.638,1.206,0.844,0.406,0.698,0.663,�k��,1.8,��
2019/10/30,00:10,0.694,0.974,0.639,1.203,0.844,0.405,0.700,0.665,���k��,2.2,��
2019/10/30,00:20,0.695,0.972,0.641,1.202,0.845,0.406,0.700,0.665,���k��,1.6,��
2019/10/30,00:30,0.694,0.974,0.640,1.203,0.842,0.405,0.699,0.665,�쐼,1.4,��
2019/10/30,00:40,0.691,0.973,0.640,1.202,0.843,0.406,0.699,0.666,�쐼,2.5,��
2019/10/30,00:50,0.695,0.973,0.638,1.204,0.844,0.407,0.697,0.665,�쐼,2.5,��
2019/10/30,01:00,0.694,0.974,0.638,1.204,0.844,0.404,0.699,0.665,��쐼,0.8,��
2019/10/30,01:10,0.693,0.974,0.639,1.204,0.843,0.405,0.698,0.667,�k��,1.5,��
2019/10/30,01:20,0.693,0.974,0.640,1.204,0.844,0.405,0.699,0.666,���k��,1.4,��
2019/10/30,01:30,0.693,0.974,0.638,1.204,0.844,0.406,0.699,0.665,��,1.6,��
2019/10/30,01:40,0.694,0.973,0.639,1.204,0.843,0.407,0.700,0.665,���쐼,0.9,��
2019/10/30,01:50,0.696,0.975,0.639,1.202,0.845,0.405,0.699,0.664,�쐼,1.1,��
2019/10/30,02:00,0.694,0.975,0.639,1.203,0.844,0.406,0.700,0.664,�쐼,2.0,��
2019/10/30,02:10,0.694,0.973,0.639,1.206,0.844,0.405,0.698,0.666,���쐼,3.1,��
2019/10/30,02:20,0.695,0.973,0.641,1.204,0.845,0.406,0.699,0.666,���쐼,4.2,��
2019/10/30,02:30,0.693,0.974,0.642,1.205,0.842,0.406,0.698,0.666,���쐼,3.8,��
2019/10/30,02:40,0.695,0.974,0.639,1.206,0.844,0.406,0.700,0.665,���쐼,2.3,��
2019/10/30,02:50,0.693,0.974,0.638,1.204,0.845,0.406,0.701,0.665,���쐼,3.2,��
2019/10/30,03:00,0.696,0.976,0.639,1.207,0.845,0.407,0.699,0.666,��,2.8,��
2019/10/30,03:10,0.694,0.974,0.641,1.204,0.846,0.407,0.699,0.665,���쐼,0.5,��
2019/10/30,03:20,0.694,0.975,0.640,1.204,0.844,0.406,0.700,0.666,�쐼,1.3,��
2019/10/30,03:30,0.694,0.975,0.641,1.205,0.844,0.406,0.699,0.665,���쐼,2.2,��
2019/10/30,03:40,0.695,0.976,0.640,1.206,0.846,0.407,0.700,0.666,���쐼,3.1,��
2019/10/30,03:50,0.695,0.976,0.642,1.205,0.846,0.407,0.701,0.666,���쐼,2.7,��
2019/10/30,04:00,0.695,0.976,0.639,1.206,0.844,0.407,0.701,0.665,�쐼,1.3,��
2019/10/30,04:10,0.695,0.976,0.640,1.205,0.845,0.406,0.701,0.664,��쓌,1.1,��
2019/10/30,04:20,0.694,0.978,0.639,1.207,0.845,0.406,0.701,0.666,��쓌,1.1,��
2019/10/30,04:30,0.695,0.976,0.640,1.204,0.843,0.407,0.700,0.666,��쐼,0.9,��
2019/10/30,04:40,0.696,0.975,0.639,1.207,0.845,0.405,0.700,0.665,��쐼,1.3,��
2019/10/30,04:50,0.696,0.975,0.640,1.207,0.847,0.407,0.700,0.666,��,2.8,��
2019/10/30,05:00,0.696,0.978,0.641,1.205,0.845,0.408,0.701,0.667,���쐼,5.0,��
2019/10/30,05:10,0.694,0.976,0.640,1.204,0.848,0.407,0.700,0.664,���쐼,8.0,��
2019/10/30,05:20,0.693,0.976,0.638,1.206,0.845,0.406,0.700,0.667,���쐼,8.6,��
2019/10/30,05:30,0.695,0.975,0.641,1.206,0.845,0.405,0.699,0.666,���쐼,7.5,��
2019/10/30,05:40,0.694,0.976,0.641,1.205,0.845,0.407,0.700,0.666,���쐼,6.9,��
2019/10/30,05:50,0.694,0.976,0.642,1.209,0.846,0.405,0.699,0.667,��,5.8,��
2019/10/30,06:00,0.696,0.975,0.642,1.206,0.845,0.407,0.701,0.665,��,6.4,��
2019/10/30,06:10,0.695,0.976,0.643,1.207,0.844,0.407,0.700,0.665,��,6.9,��
2019/10/30,06:20,0.693,0.977,0.642,1.209,0.846,0.408,0.701,0.666,��,6.4,��
2019/10/30,06:30,0.694,0.976,0.639,1.210,0.844,0.408,0.701,0.667,��,4.3,��
2019/10/30,06:40,0.694,0.976,0.640,1.207,0.846,0.407,0.702,0.667,���쐼,4.2,��
2019/10/30,06:50,0.696,0.975,0.641,1.208,0.847,0.408,0.701,0.667,���쐼,4.4,��
2019/10/30,07:00,0.694,0.976,0.642,1.207,0.846,0.407,0.702,0.667,��,5.5,��
2019/10/30,07:10,0.695,0.978,0.643,1.209,0.846,0.406,0.701,0.667,��,6.3,��
2019/10/30,07:20,0.695,0.978,0.641,1.209,0.847,0.408,0.700,0.667,���쐼,4.7,��
2019/10/30,07:30,0.698,0.978,0.643,1.207,0.846,0.408,0.703,0.666,���쐼,6.4,��
2019/10/30,07:40,0.697,0.979,0.643,1.207,0.847,0.409,0.703,0.667,���쐼,5.8,��
2019/10/30,07:50,0.697,0.981,0.642,1.207,0.847,0.408,0.703,0.667,��,3.8,��
2019/10/30,08:00,0.697,0.978,0.641,1.209,0.846,0.407,0.703,0.668,���k��,3.2,��
2019/10/30,08:10,0.697,0.980,0.643,1.211,0.847,0.407,0.703,0.669,���쐼,1.6,��
2019/10/30,08:20,0.697,0.978,0.641,1.210,0.846,0.409,0.703,0.668,��,0.9,��
2019/10/30,08:30,0.699,0.976,0.644,1.208,0.847,0.409,0.704,0.669,��,0.9,��
2019/10/30,08:40,0.698,0.976,0.644,1.210,0.849,0.408,0.700,0.669,-,CALM,��
2019/10/30,08:50,0.697,0.974,0.643,1.208,0.849,0.408,0.700,0.668,�k��,1.2,��
2019/10/30,09:00,0.699,0.979,0.641,1.211,0.849,0.409,0.702,0.667,��,2.9,��
2019/10/30,09:10,0.700,0.979,0.643,1.210,0.849,0.409,0.702,0.668,���k��,3.2,��
2019/10/30,09:20,0.699,0.976,0.643,1.213,0.852,0.410,0.703,0.670,���k��,2.8,��
2019/10/30,09:30,0.700,0.977,0.643,1.212,0.850,0.408,0.704,0.670,��,4.9,��
2019/10/30,09:40,0.695,0.976,0.641,1.212,0.850,0.408,0.703,0.667,��,3.3,��
2019/10/30,09:50,0.694,0.976,0.643,1.214,0.849,0.408,0.702,0.669,���쐼,2.1,��
2019/10/30,10:00,0.695,0.979,0.641,1.211,0.849,0.407,0.704,0.668,��,3.9,��
2019/10/30,10:10,0.696,0.978,0.642,1.214,0.850,0.406,0.701,0.669,��,4.1,��
2019/10/30,10:20,0.697,0.979,0.641,1.215,0.852,0.407,0.703,0.667,���쐼,4.4,��
2019/10/30,10:30,0.697,0.983,0.643,1.217,0.852,0.407,0.704,0.668,���쐼,3.9,��
2019/10/30,10:40,0.697,0.980,0.645,1.217,0.853,0.406,0.704,0.666,��,3.6,��
2019/10/30,10:50,0.699,0.983,0.643,1.215,0.850,0.408,0.705,0.667,��,2.8,��
2019/10/30,11:00,0.697,0.981,0.644,1.217,0.848,0.407,0.703,0.667,��,4.4,��
2019/10/30,11:10,0.698,0.981,0.645,1.216,0.852,0.408,0.703,0.667,���k��,2.0,��
2019/10/30,11:20,0.697,0.984,0.646,1.212,0.854,0.408,0.703,0.669,�k��,2.8,��
2019/10/30,11:30,0.698,0.983,0.643,1.207,0.854,0.409,0.706,0.668,���쐼,2.3,��
2019/10/30,11:40,0.697,0.980,0.639,1.215,0.855,0.409,0.705,0.667,��,3.6,��
2019/10/30,11:50,0.696,0.984,0.648,1.220,0.855,0.408,0.706,0.668,��,4.9,��
2019/10/30,12:00,0.700,0.985,0.648,1.218,0.854,0.408,0.705,0.668,���k��,4.2,��
2019/10/30,12:10,0.702,0.988,0.647,1.219,0.853,0.409,0.705,0.667,���쐼,3.8,��
2019/10/30,12:20,0.703,0.986,0.647,1.221,0.857,0.409,0.705,0.667,��,6.3,��
2019/10/30,12:30,0.703,0.992,0.649,1.218,0.856,0.409,0.705,0.669,��,6.3,��
2019/10/30,12:40,0.706,0.988,0.649,1.221,0.857,0.409,0.705,0.668,���k��,6.6,��
2019/10/30,12:50,0.706,0.989,0.650,1.222,0.859,0.409,0.705,0.669,��,7.2,��
2019/10/30,13:00,0.704,0.991,0.649,1.222,0.857,0.410,0.706,0.668,��,5.7,��
2019/10/30,13:10,0.705,0.988,0.648,1.221,0.857,0.409,0.705,0.668,��,7.7,��
2019/10/30,13:20,0.705,0.985,0.648,1.222,0.858,0.410,0.707,0.668,��,8.0,��
2019/10/30,13:30,0.703,0.985,0.648,1.224,0.857,0.409,0.705,0.669,��,6.4,��
2019/10/30,13:40,0.699,0.987,0.649,1.223,0.858,0.410,0.706,0.668,��,5.8,��
2019/10/30,13:50,0.699,0.986,0.648,1.223,0.860,0.412,0.707,0.669,���k��,5.3,��
2019/10/30,14:00,0.698,0.987,0.651,1.224,0.860,0.411,0.707,0.669,���k��,4.9,��
2019/10/30,14:10,0.700,0.988,0.650,1.224,0.859,0.410,0.707,0.669,���k��,6.7,��
2019/10/30,14:20,0.701,0.992,0.650,1.222,0.861,0.410,0.707,0.669,��,5.6,��
2019/10/30,14:30,0.701,0.992,0.649,1.222,0.860,0.410,0.706,0.668,���k��,6.6,��
2019/10/30,14:40,0.701,0.992,0.648,1.224,0.861,0.410,0.708,0.668,��,4.9,��
2019/10/30,14:50,0.700,0.992,0.652,1.227,0.860,0.412,0.707,0.669,��,4.5,��
2019/10/30,15:00,0.699,0.993,0.651,1.225,0.862,0.411,0.707,0.670,���k��,3.2,��
2019/10/30,15:10,0.701,0.994,0.651,1.224,0.862,0.411,0.706,0.670,���k��,3.2,��
2019/10/30,15:20,0.707,0.993,0.651,1.223,0.859,0.411,0.707,0.670,���k��,2.4,��
2019/10/30,15:30,0.703,0.992,0.651,1.225,0.860,0.410,0.705,0.669,�k��,1.5,��
2019/10/30,15:40,0.704,0.992,0.650,1.223,0.860,0.411,0.707,0.668,�k�k��,1.2,��
2019/10/30,15:50,0.705,0.991,0.650,1.225,0.861,0.412,0.706,0.670,�k��,3.8,��
2019/10/30,16:00,0.704,0.996,0.649,1.223,0.861,0.413,0.706,0.671,�k�k��,3.2,��
2019/10/30,16:10,0.705,0.994,0.649,1.224,0.860,0.412,0.707,0.670,�k,2.0,��
2019/10/30,16:20,0.706,0.995,0.650,1.225,0.863,0.413,0.708,0.671,�k,3.4,��
2019/10/30,16:30,0.705,0.996,0.649,1.226,0.859,0.412,0.707,0.672,�k,2.9,��
2019/10/30,16:40,0.705,0.998,0.651,1.226,0.861,0.410,0.706,0.672,�k,2.7,��
2019/10/30,16:50,0.704,0.995,0.653,1.225,0.863,0.412,0.707,0.673,�k,2.5,��
2019/10/30,17:00,0.708,0.995,0.652,1.224,0.863,0.412,0.708,0.673,�k�k��,3.2,��
2019/10/30,17:10,0.707,0.996,0.652,1.226,0.863,0.411,0.709,0.672,�k�k��,3.3,��
2019/10/30,17:20,0.707,0.998,0.653,1.226,0.862,0.412,0.707,0.673,�k�k��,2.9,��
2019/10/30,17:30,0.706,0.996,0.652,1.225,0.863,0.411,0.707,0.672,�k�k��,2.3,��
2019/10/30,17:40,0.706,0.997,0.653,1.224,0.865,0.411,0.706,0.672,�k�k��,2.0,��
2019/10/30,17:50,0.706,0.997,0.652,1.224,0.864,0.411,0.706,0.671,�k�k��,2.4,��
2019/10/30,18:00,0.705,0.998,0.654,1.225,0.865,0.411,0.706,0.671,�k,1.1,��
2019/10/30,18:10,0.707,0.996,0.652,1.227,0.864,0.412,0.706,0.670,�k,1.2,��
2019/10/30,18:20,0.703,0.995,0.652,1.226,0.864,0.410,0.707,0.671,�k��,1.1,��
2019/10/30,18:30,0.706,0.997,0.654,1.226,0.865,0.411,0.708,0.670,�k�k��,1.0,��
2019/10/30,18:40,0.705,0.996,0.652,1.227,0.863,0.410,0.708,0.671,�k�k��,1.9,��
2019/10/30,18:50,0.705,0.997,0.653,1.226,0.864,0.412,0.707,0.671,�k�k��,1.8,��
2019/10/30,19:00,0.706,0.995,0.654,1.226,0.865,0.411,0.705,0.673,�k�k��,1.6,��
2019/10/30,19:10,0.707,0.997,0.654,1.226,0.865,0.409,0.708,0.670,�k�k��,2.3,��
2019/10/30,19:20,0.702,0.996,0.652,1.228,0.863,0.410,0.709,0.671,�k�k��,2.2,��
2019/10/30,19:30,0.704,0.998,0.652,1.226,0.865,0.410,0.708,0.672,�k�k��,1.1,��
2019/10/30,19:40,0.703,0.998,0.653,1.224,0.864,0.411,0.707,0.672,���k��,1.2,��
2019/10/30,19:50,0.703,0.994,0.652,1.226,0.864,0.409,0.707,0.672,���k��,1.1,��
2019/10/30,20:00,0.702,0.996,0.654,1.226,0.863,0.410,0.706,0.671,��,1.9,��
2019/10/30,20:10,0.704,0.995,0.653,1.227,0.863,0.410,0.706,0.671,���k��,2.3,��
2019/10/30,20:20,0.704,0.998,0.653,1.226,0.866,0.410,0.705,0.673,�k��,2.2,��
2019/10/30,20:30,0.704,0.996,0.653,1.226,0.865,0.409,0.707,0.672,�k��,1.8,��
2019/10/30,20:40,0.705,0.996,0.653,1.226,0.863,0.409,0.707,0.672,�k�k��,2.2,��
2019/10/30,20:50,0.702,0.998,0.652,1.229,0.863,0.410,0.707,0.672,�k�k��,2.6,��
2019/10/30,21:00,0.703,0.994,0.652,1.226,0.864,0.410,0.706,0.671,�k��,3.2,��
2019/10/30,21:10,0.705,0.996,0.652,1.225,0.863,0.410,0.705,0.670,�k�k��,3.4,��
2019/10/30,21:20,0.703,0.995,0.652,1.225,0.866,0.409,0.706,0.672,�k�k��,2.7,��
2019/10/30,21:30,0.704,0.995,0.653,1.228,0.863,0.411,0.707,0.670,�k��,4.5,��
2019/10/30,21:40,0.703,0.996,0.651,1.225,0.863,0.410,0.708,0.670,�k�k��,5.6,��
2019/10/30,21:50,0.704,0.995,0.654,1.227,0.863,0.410,0.706,0.671,�k��,5.6,��
2019/10/30,22:00,0.705,0.995,0.653,1.225,0.864,0.411,0.708,0.672,�k�k��,5.3,��
2019/10/30,22:10,0.705,0.995,0.655,1.225,0.864,0.410,0.707,0.672,�k�k��,5.5,��
2019/10/30,22:20,0.706,0.995,0.654,1.226,0.865,0.410,0.705,0.670,�k�k��,3.9,��
2019/10/30,22:30,0.706,0.994,0.653,1.226,0.863,0.409,0.705,0.672,�k�k��,4.9,��
2019/10/30,22:40,0.704,0.995,0.653,1.227,0.864,0.409,0.708,0.672,�k�k��,3.8,��
2019/10/30,22:50,0.703,0.996,0.653,1.227,0.863,0.409,0.707,0.672,�k,2.7,��
2019/10/30,23:00,0.704,0.998,0.652,1.226,0.866,0.409,0.707,0.671,�k�k��,3.3,��
2019/10/30,23:10,0.703,0.996,0.653,1.227,0.862,0.409,0.707,0.671,�k,2.2,��
2019/10/30,23:20,0.704,0.996,0.653,1.225,0.863,0.409,0.705,0.672,�k,1.4,��
2019/10/30,23:30,0.704,0.995,0.651,1.228,0.863,0.409,0.708,0.671,�k�k��,1.5,��
2019/10/30,23:40,0.706,0.996,0.653,1.226,0.863,0.408,0.707,0.672,�k�k��,1.9,��
2019/10/30,23:50,0.707,0.997,0.653,1.228,0.866,0.408,0.707,0.670,�k�k��,1.4,��
